STARLINK-11656, 63674

Orbit data source: Space-Track

STARLINK-11656, 63674 is a payload satellite owned by SpaceX/Seattle (US) in LEO that was launched on Mon, 28 Apr 2025 UTC via an FALCON 9 launch vehicle from the Air Force Eastern Test Range (AFETR). Payload-class satellites include a variety of spacecraft equipped with specific instruments for various scientific and technological missions. These include communications satellites like Starlink; space stations such as the ISS; scientific satellites like the Hubble; Earth observation satellites from companies like Planet Labs, Umbra, and HawkEye 360; GPS; miniature CubeSats for education and research; and military/defense satellites.

Loading next visibility...
Identifier
63674, 2025-085L
Orbit
LEO
Country
Flag of USUS
Related business
Manufacturer
SpaceX/Seattle
Mission
Operational Commercial Communications
Bus & Motor
STARLINK V2MD, Unknown motor
Mass
960 kg wet, ~910 kg dry
Launch date (UTC)
2025-04-28 (1 year ago)
Launch vehicle
FALCON 9
Launch site
Air Force Eastern Test Range (AFETR)
Object type
Payload
Rocket body
Debris
Shape & HBR
Box + 2 Pan, 18.1 m
Radar Cross Section
36.964 m², Large (>1 m²)

Expand to show TLE details & history
Last TLE update: 23 hours ago

TLE from 23 hours ago
0 STARLINK-11656
1 63674U 25085L   26170.99726589  .00130863  00000-0  10062-2 0  9999
2 63674  43.0001  21.6078 0001356 285.9767  74.0951 15.70867565 66333
Epoch: 2026-06-19T23:56Z
TLE epoch observation values (Epoch: 2026-06-19T23:56:03.772Z)
Latitude
-0.00005°
Longitude
114.37381°
Altitude
355.937 km
Speed
7.698 km/s
True Right ascension
01h 26m 25s
True Declination
0° 00' 00"
Sunlit
Object was in daylight at epoch
Visualization orbit readout
Latitude
Unknown
Longitude
Unknown
Altitude
Unknown
Speed
Unknown
Apparent Right ascension
Unknown
Apparent Declination
Unknown
Sunlit
N/A
Visualization observer readout
Local Sidereal Time
10:20:32
Azimuth
Unknown
Elevation
Unknown
Doppler factor
Unknown
Orbital elements
Apogee altitude
359.311 km
Perigee altitude
357.484 km
Semi-major axis
6,736.535 km
Eccentricity
0.00014
Inclination
43.0001°
RAAN
21.6078°
Arg. of periapsis
285.9767°
True anomaly
74.11004°
Mean anomaly
74.0951°
Eccentric anomaly
74.10257°
Mean motion
3.92544 °/min
Orbital period
91.71 mins
BSTAR
0.0010062
Loading maneuver chart data...
Computing Atmospheric mass density...
Loading historical data...
Loading historical data...
Loading historical data...
Loading historical data...
Loading historical data...
Loading historical data...
Loading historical data...

Documentation

Showing up to 5 results
|